Kezdőlap
METAR-TAF:

METAR-TAF

Repülőterek :

Pittsfield Penstone Municipal Airport

Pittsfield, Illinois, Amerikai Egyesült Államok

földrajzi szélesség: 39-38-20N, földrajzi hosszúság: 090-46-42W, magasság: 216 m

Jelenlegi meteorológiai megfigyelések

A jelentés 11 perccel ezelõtt készült, 18:15 UTC
Délkeleti szél 13 kt széllökések: 18 kt
Hőmérséklet 23°C
Páratartalom 50%
Légköri nyomás 1013 hPa
Látótávolság: 16.1 km
Derült ég

METAR: KPPQ 181815Z AUTO 13013G18KT 10SM CLR 23/12 A2991 RMK AO2 LTG DSNT W AND NW T02250124

Idő: 13:26 (18:26 UTC)


TAF: hiányzik

Meteorológiai megfigyelések és előrejelzések több, mint 4000 repülőtéren (METAR és TAF jelentéseket).

A térképen piros és sárga pontok jelzik az elérhető meteorológiai állomásokat.

Mozgassa az egeret a pont fölött, hogy megjelenjen az állomás neve.

Azután kattintson az időjárási megfigyelések és előrejelzések megtekintéséhez.

A térkép megváltoztatása: kattintson a fekete keresztel jelölt zöld gombra ráközelítéshez, a vonallal jelölt zöld gombra távolításhoz, vagy a zöld nyilakra a szomszédos térképek eléréséhez.


METAR-TAF: